sat.trackr.live / text

‹ back to catalog

STARLINK-36086

NORAD 66980 · 2025-288X

PAYLOAD ACTIVE UNKNOWN

§ Identity

Operator
Country
US
Launch date
2025-12-08
Launch site
AFETR
Launch vehicle
Mass (kg)
RCS (m²)

Purposes: comms

External: N2YO · Heavens-Above · Gunter

§ Orbital elements

Epoch: 2026-09-20T17:35:02.932512Z

Period
94.27 min
Inclination
43.0041°
Eccentricity
0.0001637
Mean motion
15.27590160 rev/d
Perigee alt
481.9 km
Apogee alt
484.1 km
Semi-major
6,861.2 km
B*
6.3784e-4
RAAN
2.2170°
Arg perigee
269.4626°
Mean anomaly
90.6038°
Rev number
4,511

§ Raw data

STARLINK-360861 66980U 25288X   26263.73267283  .00017337  00000+0  63784-3 0  99922 66980  43.0041   2.2170 0001637 269.4626  90.6038 15.27590160 45110

JSON: /api/v1/satellites/66980 · /tle

For live sub-satellite position, see the globe view (requires WebGL).

§ Visibility from observer

Set your observer location to see the next 7 days of passes ≥ 10°. The values pass through the URL so the page stays shareable.

No JS? Fill the form by hand. The geolocation button needs JavaScript.